• In Hungary
  • List of Countries
  • For 7 days
  • Water Temperature
  • Satellite Maps
  • Weather Map
  • News
  • Weather Widgets
  • user-avatar
    Login

    Hourly Weather Chuhynka

    Today, 17 December, Sunday

    Time Temperature Precipitation Wind Pressure Humidity
    00:00 +4°C° 0 mm 8 mps 753 mmHg 85%
    01:00 +2°C° 0 mm 8 mps 753 mmHg 86%
    02:00 +2°C° 0 mm 8 mps 753 mmHg 87%
    03:00 +3°C° 0 mm 7 mps 753 mmHg 88%
    04:00 +3°C° 0 mm 7 mps 753 mmHg 88%
    05:00 +3°C° 0 mm 7 mps 753 mmHg 88%
    06:00 +3°C° 0 mm 7 mps 753 mmHg 89%
    07:00 +3°C° 0 mm 7 mps 753 mmHg 88%
    08:00 +3°C° 0 mm 7 mps 753 mmHg 88%
    09:00 +2°C° 0 mm 8 mps 753 mmHg 87%
    10:00 +2°C° 0 mm 8 mps 753 mmHg 85%
    11:00 +4°C° 0 mm 8 mps 753 mmHg 82%
    12:00 +4°C° 0 mm 8 mps 753 mmHg 79%
    13:00 +5°C° 0 mm 7 mps 752 mmHg 78%
    14:00 +5°C° 0 mm 7 mps 752 mmHg 77%
    15:00 +5°C° 0 mm 6 mps 752 mmHg 75%
    16:00 +5°C° 0 mm 6 mps 752 mmHg 77%
    17:00 +5°C° 0 mm 6 mps 752 mmHg 79%
    18:00 +4°C° 0 mm 6 mps 752 mmHg 81%
    19:00 +4°C° 0 mm 6 mps 752 mmHg 82%
    20:00 +4°C° 0 mm 6 mps 752 mmHg 83%
    21:00 +4°C° 0 mm 6 mps 752 mmHg 84%
    22:00 +4°C° 0 mm 6 mps 752 mmHg 85%
    23:00 +4°C° 0 mm 6 mps 753 mmHg 86%

    Tomorrow, 18 December, Monday

    Time Temperature Precipitation Wind Pressure Humidity
    00:00 +3°C° 0 mm 6 mps 753 mmHg 86%
    01:00 +3°C° 0 mm 6 mps 752 mmHg 87%
    02:00 +3°C° 0 mm 6 mps 752 mmHg 87%
    03:00 +3°C° 0 mm 6 mps 752 mmHg 87%
    04:00 +3°C° 0.2 mm 7 mps 752 mmHg 87%
    05:00 +4°C° 0.2 mm 7 mps 752 mmHg 87%
    06:00 +4°C° 0.2 mm 7 mps 751 mmHg 88%
    07:00 +4°C° 0.3 mm 7 mps 751 mmHg 87%
    08:00 +4°C° 0.3 mm 8 mps 751 mmHg 87%
    09:00 +4°C° 0.3 mm 8 mps 751 mmHg 87%
    10:00 +4°C° 0.3 mm 8 mps 751 mmHg 85%
    11:00 +4°C° 0.3 mm 8 mps 751 mmHg 84%
    12:00 +5°C° 0.3 mm 8 mps 751 mmHg 83%
    13:00 +5°C° 0.8 mm 8 mps 750 mmHg 83%
    14:00 +5°C° 0.8 mm 8 mps 750 mmHg 84%
    15:00 +5°C° 0.8 mm 8 mps 750 mmHg 84%
    16:00 +5°C° 0.1 mm 8 mps 750 mmHg 84%
    17:00 +6°C° 0.1 mm 8 mps 750 mmHg 83%
    18:00 +6°C° 0.1 mm 7 mps 750 mmHg 83%
    19:00 +5°C° 0 mm 7 mps 750 mmHg 84%
    20:00 +5°C° 0 mm 6 mps 750 mmHg 85%
    21:00 +5°C° 0 mm 6 mps 751 mmHg 86%
    22:00 +6°C° 0.1 mm 5 mps 751 mmHg 87%
    23:00 +5°C° 0.1 mm 4 mps 751 mmHg 87%

    Day after tomorrow, 19 December, Tuesday

    Time Temperature Precipitation Wind Pressure Humidity
    00:00 +5°C° 0.1 mm 4 mps 751 mmHg 88%
    01:00 +5°C° 0.2 mm 3 mps 752 mmHg 88%
    02:00 +4°C° 0.2 mm 3 mps 752 mmHg 88%
    03:00 +4°C° 0.2 mm 3 mps 752 mmHg 89%
    04:00 +4°C° 0.2 mm 3 mps 752 mmHg 89%
    05:00 +4°C° 0.2 mm 2 mps 752 mmHg 89%
    06:00 +4°C° 0.2 mm 2 mps 752 mmHg 89%
    07:00 +4°C° 0.1 mm 2 mps 753 mmHg 88%
    08:00 +4°C° 0.1 mm 2 mps 753 mmHg 88%
    09:00 +4°C° 0.1 mm 2 mps 753 mmHg 87%
    10:00 +4°C° 0 mm 2 mps 754 mmHg 83%
    11:00 +4°C° 0 mm 2 mps 754 mmHg 79%
    12:00 +3°C° 0 mm 3 mps 754 mmHg 74%
    13:00 +3°C° 0 mm 3 mps 754 mmHg 73%
    14:00 +3°C° 0 mm 3 mps 754 mmHg 71%
    15:00 +3°C° 0 mm 3 mps 755 mmHg 69%
    16:00 +3°C° 0 mm 2 mps 755 mmHg 71%
    17:00 +3°C° 0 mm 2 mps 755 mmHg 74%
    18:00 +2°C° 0 mm 2 mps 756 mmHg 77%
    19:00 +1°C° 0 mm 2 mps 756 mmHg 78%
    20:00 +2°C° 0 mm 1 mps 756 mmHg 79%
    21:00 +2°C° 0 mm 1 mps 757 mmHg 80%
    22:00 +1°C° 0 mm 1 mps 757 mmHg 80%
    23:00 -1°C° 0 mm 2 mps 757 mmHg 80%

    20 December, Wednesday

    Time Temperature Precipitation Wind Pressure Humidity
    00:00 -1°C° 0 mm 2 mps 758 mmHg 80%
    01:00 +1°C° 0 mm 1 mps 758 mmHg 80%
    02:00 +1°C° 0 mm 1 mps 758 mmHg 80%
    03:00 +1°C° 0 mm 1 mps 758 mmHg 80%
    04:00 +1°C° 0 mm 1 mps 758 mmHg 80%
    05:00 +1°C° 0 mm 1 mps 759 mmHg 80%
    06:00 0°C° 0 mm 0 mps 759 mmHg 79%
    07:00 +1°C° 0 mm 1 mps 759 mmHg 78%
    08:00 +1°C° 0 mm 1 mps 759 mmHg 77%
    09:00 +2°C° 0 mm 1 mps 760 mmHg 75%
    10:00 +2°C° 0 mm 1 mps 760 mmHg 72%
    11:00 +3°C° 0 mm 1 mps 760 mmHg 69%
    12:00 +4°C° 0 mm 1 mps 760 mmHg 65%
    13:00 +4°C° 0 mm 1 mps 760 mmHg 65%
    14:00 +3°C° 0 mm 2 mps 760 mmHg 66%
    15:00 +3°C° 0 mm 2 mps 760 mmHg 66%
    16:00 +3°C° 0 mm 2 mps 760 mmHg 71%
    17:00 +2°C° 0 mm 2 mps 760 mmHg 76%
    18:00 +1°C° 0 mm 2 mps 760 mmHg 81%
    19:00 +2°C° 0.1 mm 2 mps 760 mmHg 84%
    20:00 +1°C° 0.1 mm 3 mps 760 mmHg 87%
    21:00 +2°C° 0.1 mm 3 mps 760 mmHg 90%
    22:00 +2°C° 0.1 mm 3 mps 760 mmHg 92%
    23:00 +2°C° 0.1 mm 3 mps 759 mmHg 93%

    21 December, Thursday

    Time Temperature Precipitation Wind Pressure Humidity
    00:00 +2°C° 0.1 mm 3 mps 759 mmHg 95%
    01:00 +1°C° 0.2 mm 4 mps 759 mmHg 94%
    02:00 +3°C° 0.2 mm 4 mps 759 mmHg 94%
    03:00 +3°C° 0.2 mm 4 mps 758 mmHg 93%
    04:00 +1°C° 1.2 mm 5 mps 758 mmHg 92%
    05:00 +1°C° 1.2 mm 5 mps 758 mmHg 91%
    06:00 +1°C° 1.2 mm 5 mps 757 mmHg 91%
    07:00 +1°C° 1.4 mm 6 mps 757 mmHg 90%
    08:00 -1°C° 1.4 mm 6 mps 757 mmHg 90%
    09:00 -1°C° 1.4 mm 6 mps 756 mmHg 90%
    10:00 -1°C° 0.5 mm 6 mps 756 mmHg 90%
    11:00 -1°C° 0.5 mm 6 mps 756 mmHg 90%
    12:00 -1°C° 0.5 mm 6 mps 755 mmHg 90%
    13:00 -1°C° 0.3 mm 6 mps 755 mmHg 91%
    14:00 -1°C° 0.3 mm 6 mps 754 mmHg 91%
    15:00 -1°C° 0.3 mm 6 mps 753 mmHg 92%
    16:00 +1°C° 0.2 mm 6 mps 753 mmHg 92%
    17:00 +1°C° 0.2 mm 6 mps 753 mmHg 92%
    18:00 +1°C° 0.2 mm 6 mps 753 mmHg 91%
    19:00 +1°C° 0.1 mm 6 mps 753 mmHg 89%
    20:00 -1°C° 0.1 mm 6 mps 753 mmHg 86%
    21:00 -1°C° 0.1 mm 6 mps 754 mmHg 84%
    22:00 -2°C° 0 mm 6 mps 754 mmHg 83%
    23:00 -2°C° 0 mm 7 mps 754 mmHg 82%

    22 December, Friday

    Time Temperature Precipitation Wind Pressure Humidity
    00:00 -3°C° 0 mm 7 mps 754 mmHg 81%
    01:00 -3°C° 0 mm 6 mps 754 mmHg 81%
    02:00 -4°C° 0 mm 6 mps 754 mmHg 82%
    03:00 -4°C° 0 mm 5 mps 754 mmHg 82%
    04:00 -5°C° 0 mm 5 mps 754 mmHg 82%
    05:00 -5°C° 0 mm 5 mps 754 mmHg 81%
    06:00 -5°C° 0 mm 4 mps 754 mmHg 81%
    07:00 -5°C° 0 mm 4 mps 754 mmHg 81%
    08:00 -5°C° 0 mm 4 mps 754 mmHg 81%
    09:00 -5°C° 0 mm 4 mps 754 mmHg 80%
    10:00 -5°C° 0 mm 4 mps 754 mmHg 79%
    11:00 -4°C° 0 mm 4 mps 754 mmHg 77%
    12:00 -4°C° 0 mm 4 mps 754 mmHg 75%
    13:00 -4°C° 0 mm 4 mps 754 mmHg 74%
    14:00 -3°C° 0 mm 4 mps 754 mmHg 73%
    15:00 -3°C° 0 mm 4 mps 754 mmHg 72%
    16:00 -3°C° 0 mm 4 mps 754 mmHg 73%
    17:00 -3°C° 0 mm 4 mps 754 mmHg 74%
    18:00 -2°C° 0 mm 3 mps 754 mmHg 74%
    19:00 -2°C° 0 mm 3 mps 754 mmHg 75%
    20:00 -4°C° 0 mm 3 mps 754 mmHg 76%
    21:00 -4°C° 0 mm 3 mps 754 mmHg 77%
    22:00 -4°C° 0 mm 3 mps 754 mmHg 78%
    23:00 -3°C° 0 mm 2 mps 754 mmHg 79%
    Show more